This is the latest recevied weather packets stored in our database for station/object KC0RPY. If no packets are shown the sender has not sent any weather packets the latest 10 day(s).
| Time | Temp. | Humidity | Pressure | Rain* | Wind** | Luminosity | Snow |
|---|---|---|---|---|---|---|---|
| 1777911789 | 23.33° C | 52% | 1004.4 hPa | 0 mm | - | 911 W/m² | - |
| 1777911486 | 22.78° C | 52% | 1004.4 hPa | 0 mm | - | 907 W/m² | - |
| 1777911183 | 22.78° C | 52% | 1004.4 hPa | 0 mm | - | 885 W/m² | - |
| 1777910881 | 22.22° C | 52% | 1004.9 hPa | 0 mm | - | 889 W/m² | - |
| 1777910577 | 22.22° C | 53% | 1004.4 hPa | 0 mm | - | 627 W/m² | - |
| 1777910274 | 22.22° C | 52% | 1004.4 hPa | 0 mm | - | 880 W/m² | - |
| 1777909971 | 22.22° C | 53% | 1004.9 hPa | 0 mm | - | 796 W/m² | - |
| 1777909668 | 22.22° C | 52% | 1004.9 hPa | 0 mm | - | 777 W/m² | - |
| 1777909365 | 21.67° C | 52% | 1005.2 hPa | 0 mm | - | 756 W/m² | - |
| 1777909063 | 22.22° C | 53% | 1004.9 hPa | 0 mm | - | 737 W/m² | - |
| 1777908760 | 21.67° C | 53% | 1004.9 hPa | 0 mm | - | 739 W/m² | - |
| 1777908458 | 21.67° C | 53% | 1004.9 hPa | 0 mm | - | 719 W/m² | - |
| 1777908154 | 21.67° C | 53% | 1004.4 hPa | 0 mm | - | 701 W/m² | - |
| 1777907850 | 22.22° C | 52% | 1004.9 hPa | 0 mm | - | 688 W/m² | - |
| 1777907546 | 21.67° C | 54% | 1004.9 hPa | 0 mm | - | 652 W/m² | - |
| 1777907242 | 21.11° C | 54% | 1004.9 hPa | 0 mm | - | 609 W/m² | - |
| 1777906939 | 21.11° C | 54% | 1005.2 hPa | 0 mm | - | 603 W/m² | - |
| 1777906637 | 21.11° C | 54% | 1004.9 hPa | 0 mm | - | 596 W/m² | - |
| 1777906332 | 21.11° C | 55% | 1004.9 hPa | 0 mm | - | 572 W/m² | - |
| 1777906029 | 20.56° C | 55% | 1004.9 hPa | 0 mm | - | 567 W/m² | - |
| 1777905726 | 20.56° C | 56% | 1004.9 hPa | 0 mm | - | 497 W/m² | - |
| 1777905423 | 20.56° C | 56% | 1004.9 hPa | 0 mm | - | 409 W/m² | - |
| 1777905121 | 20° C | 56% | 1004.4 hPa | 0 mm | - | 526 W/m² | - |
| 1777904817 | 20.56° C | 56% | 1005.2 hPa | 0 mm | - | 212 W/m² | - |
| 1777904515 | 20° C | 57% | 1004.9 hPa | 0 mm | - | 373 W/m² | - |
* Rain latest hour (hover to see other rain measurements)
** Current wind speed in m/s (hover to see current wind gust speed)